KC0UFP Weather Reports


Display with metric or nautical units.
time (UTC)temp
F
wind
direction
speed
MPH
gust
MPH
rain 1hr
in
rain 24hr
in
rain mn
in
humidity
%
barometer
mb
20260906134327 84 99 9.0 11.0 0.00 0.00 0.00 77 1013.7
20260906133823 84 73 5.0 9.0 0.00 0.00 0.00 77 1013.8
20260906133319 83 101 7.0 10.0 0.00 0.00 0.00 78 1013.7
20260906132814 83 30 6.0 8.0 0.00 0.00 0.00 78 1013.8
20260906132309 82 26 6.0 8.0 0.00 0.00 0.00 79 1013.9
20260906131804 82 70 7.0 9.0 0.00 0.00 0.00 79 1013.9
20260906131300 82 95 5.0 9.0 0.00 0.00 0.00 79 1013.9
20260906130755 82 42 3.0 8.0 0.00 0.00 0.00 80 1013.7
20260906130250 81 32 4.0 9.0 0.00 0.00 0.00 81 1013.5
20260906125749 81 27 5.0 9.0 0.00 0.00 0.00 81 1013.5
20260906125247 81 17 5.0 9.0 0.00 0.00 0.00 80 1013.4
20260906124741 81 4 3.0 5.0 0.00 0.00 0.00 81 1013.3
20260906124237 81 17 2.0 5.0 0.00 0.00 0.00 82 1013.4
20260906123736 80 311 2.0 3.0 0.00 0.00 0.00 83 1013.2
20260906123231 80 334 1.0 3.0 0.00 0.00 0.00 83 1013.0
20260906122731 80 345 3.0 4.0 0.00 0.00 0.00 83 1013.1
20260906122226 79 320 2.0 3.0 0.00 0.00 0.00 84 1013.0
20260906121723 79 286 2.0 3.0 0.00 0.00 0.00 85 1013.0
20260906121219 78 274 1.0 2.0 0.00 0.00 0.00 86 1013.1
20260906120714 78 260 2.0 2.0 0.00 0.00 0.00 86 1012.8
20260906120211 77 336 0.0 2.0 0.00 0.00 0.00 87 1012.7
20260906115707 77 324 2.0 3.0 0.00 0.00 0.00 88 1012.6
20260906115201 77 303 3.0 5.0 0.00 0.00 0.00 88 1012.6
20260906114700 77 303 0.0 3.0 0.00 0.00 0.00 88 1012.3
20260906114155 77 306 2.0 3.0 0.00 0.00 0.00 88 1012.5
20260906113650 77 357 2.0 3.0 0.00 0.00 0.00 88 1012.2
20260906113150 77 304 2.0 3.0 0.00 0.00 0.00 88 1012.2
20260906112649 77 309 0.0 2.0 0.00 0.00 0.00 88 1012.2
20260906112147 77 352 0.0 3.0 0.00 0.00 0.00 88 1012.1
20260906111645 77 334 2.0 3.0 0.00 0.00 0.00 87 1012.1
20260906111140 78 323 2.0 3.0 0.00 0.00 0.00 87 1012.1
20260906110635 78 301 1.0 2.0 0.00 0.00 0.00 87 1012.3
20260906110130 78 300 2.0 3.0 0.00 0.00 0.00 87 1012.2
20260906105624 77 295 2.0 2.0 0.00 0.00 0.00 88 1012.0
20260906105121 77 335 1.0 2.0 0.00 0.00 0.00 88 1012.0
20260906104620 77 284 0.0 1.0 0.00 0.00 0.00 88 1012.0
20260906104119 77 309 0.0 1.0 0.00 0.00 0.00 87 1012.0
20260906103618 78 310 0.0 2.0 0.00 0.00 0.00 87 1011.8
20260906103113 77 286 2.0 3.0 0.00 0.00 0.00 88 1011.9
20260906102608 77 326 0.0 1.0 0.00 0.00 0.00 87 1011.9
20260906102102 78 329 2.0 2.0 0.00 0.00 0.00 87 1012.2
20260906101557 78 58 1.0 2.0 0.00 0.00 0.00 87 1012.0
20260906101052 78 358 1.0 3.0 0.00 0.00 0.00 87 1011.9
20260906100547 78 322 0.0 1.0 0.00 0.00 0.00 85 1011.9
20260906100042 79 283 2.0 3.0 0.00 0.00 0.00 85 1012.0
20260906095536 79 293 2.0 3.0 0.00 0.00 0.00 85 1011.7
20260906095032 79 334 2.0 3.0 0.00 0.00 0.00 85 1011.9
20260906094531 79 319 2.0 3.0 0.00 0.00 0.00 84 1011.9
20260906094027 79 308 2.0 3.0 0.00 0.00 0.00 84 1011.9
20260906093523 79 323 3.0 3.0 0.00 0.00 0.00 84 1011.9
20260906093022 80 298 2.0 3.0 0.00 0.00 0.00 83 1011.9
20260906092517 80 280 2.0 3.0 0.00 0.00 0.00 83 1011.8
20260906092012 79 301 2.0 3.0 0.00 0.00 0.00 84 1011.8
20260906091508 79 329 2.0 3.0 0.00 0.00 0.00 83 1011.6
20260906091005 79 323 3.0 4.0 0.00 0.00 0.00 83 1011.8
20260906090504 80 306 2.0 3.0 0.00 0.00 0.00 83 1011.6
20260906085959 80 324 2.0 3.0 0.00 0.00 0.00 81 1011.7
20260906085458 80 302 2.0 2.0 0.00 0.00 0.00 81 1011.8
20260906084957 80 303 0.0 2.0 0.00 0.00 0.00 81 1011.6
20260906084452 80 9 0.0 2.0 0.00 0.00 0.00 81 1011.8
20260906083951 80 319 0.0 2.0 0.00 0.00 0.00 81 1011.7
20260906083447 80 345 2.0 2.0 0.00 0.00 0.00 81 1011.7
20260906082946 80 333 0.0 1.0 0.00 0.00 0.00 81 1011.7
20260906082442 80 353 0.0 2.0 0.00 0.00 0.00 81 1011.7
20260906081937 81 309 2.0 2.0 0.00 0.00 0.00 81 1011.7
20260906081432 81 346 0.0 2.0 0.00 0.00 0.00 80 1011.7
20260906080929 81 336 1.0 3.0 0.00 0.00 0.00 80 1011.5
20260906080426 81 293 2.0 2.0 0.00 0.00 0.00 80 1011.4
20260906075925 82 355 2.0 2.0 0.00 0.00 0.00 79 1011.5
20260906075420 81 344 2.0 2.0 0.00 0.00 0.00 79 1011.7
20260906074915 82 295 0.0 2.0 0.00 0.00 0.00 79 1011.6
20260906074409 82 358 2.0 3.0 0.00 0.00 0.00 79 1011.7
20260906073908 82 15 2.0 2.0 0.00 0.00 0.00 78 1011.6
20260906073403 82 4 1.0 2.0 0.00 0.00 0.00 78 1011.5
20260906072900 82 37 0.0 5.0 0.00 0.00 0.00 79 1011.7
20260906072354 82 35 4.0 4.0 0.00 0.00 0.00 79 1011.7
20260906071850 80 328 0.0 3.0 0.00 0.00 0.00 81 1011.6
20260906071346 80 269 0.0 2.0 0.00 0.00 0.00 82 1011.6
20260906070842 80 343 1.0 3.0 0.00 0.00 0.00 82 1011.7
20260906070338 81 25 2.0 3.0 0.00 0.00 0.00 81 1011.7
20260906065833 81 318 0.0 2.0 0.00 0.00 0.00 80 1011.5
20260906065327 81 325 1.0 3.0 0.00 0.00 0.00 80 1011.8
20260906064822 81 300 2.0 3.0 0.00 0.00 0.00 81 1011.7
20260906064319 81 321 2.0 3.0 0.00 0.00 0.00 81 1011.6
20260906063813 81 294 0.0 3.0 0.00 0.00 0.00 82 1011.9
20260906063309 81 304 0.0 3.0 0.00 0.00 0.00 81 1012.0
20260906062804 82 301 2.0 3.0 0.00 0.00 0.00 78 1011.9
20260906062306 82 313 2.0 3.0 0.00 0.00 0.00 79 1012.1
20260906061758 82 322 2.0 3.0 0.00 0.00 0.00 79 1011.9
20260906061255 82 328 2.0 3.0 0.00 0.00 0.00 79 1012.0
20260906060750 82 312 2.0 2.0 0.00 0.00 0.00 80 1012.0
20260906060247 81 303 2.0 3.0 0.00 0.00 0.00 80 1011.8
20260906055743 82 10 0.0 2.0 0.00 0.00 0.00 80 1012.0
20260906055238 82 321 2.0 3.0 0.00 0.00 0.00 79 1011.9
20260906054733 82 310 2.0 2.0 0.00 0.00 0.00 80 1012.0
20260906054228 82 295 1.0 2.0 0.00 0.00 0.00 80 1011.9
20260906053725 82 306 1.0 2.0 0.00 0.00 0.00 79 1011.9
20260906053220 83 299 2.0 2.0 0.00 0.00 0.00 78 1011.9
20260906052715 82 320 1.0 2.0 0.00 0.00 0.00 78 1011.8
20260906052211 81 301 1.0 2.0 0.00 0.00 0.00 80 1012.0
20260906051708 81 221 1.0 2.0 0.00 0.00 0.00 81 1011.6
20260906051207 82 212 0.0 1.0 0.00 0.00 0.00 80 1011.8
20260906050703 82 295 1.0 2.0 0.00 0.00 0.00 79 1012.0
20260906050158 82 269 0.0 1.0 0.00 0.00 0.00 79 1011.7
20260906045656 83 283 1.0 2.0 0.00 0.00 0.00 78 1011.8
20260906045151 83 290 2.0 3.0 0.00 0.00 0.00 78 1011.9
20260906044648 82 319 2.0 3.0 0.00 0.00 0.00 79 1011.6
20260906044143 83 316 2.0 3.0 0.00 0.00 0.00 79 1011.8
20260906043639 82 329 2.0 3.0 0.00 0.00 0.00 80 1011.8
20260906043134 82 296 1.0 2.0 0.00 0.00 0.00 81 1011.8
20260906042634 82 292 2.0 3.0 0.00 0.00 0.00 82 1011.8
20260906042128 82 304 2.0 5.0 0.00 0.00 0.00 82 1011.7
20260906041623 82 291 2.0 6.0 0.00 0.00 0.00 81 1011.6
20260906041118 83 299 2.0 2.0 0.00 0.00 0.00 81 1011.5
20260906040614 83 294 2.0 3.0 0.00 0.00 0.00 79 1011.4
20260906040109 84 314 1.0 3.0 0.00 0.00 0.00 79 1011.7
20260906035604 84 304 2.0 3.0 0.00 0.00 0.00 77 1011.6
20260906035100 84 316 2.0 3.0 0.00 0.00 0.00 74 1011.7
20260906034600 85 299 2.0 2.0 0.00 0.00 0.00 73 1011.5
20260906034055 86 293 2.0 2.0 0.00 0.00 0.00 72 1011.6
20260906033550 86 289 2.0 3.0 0.00 0.00 0.00 71 1011.6
20260906033045 86 294 2.0 2.0 0.00 0.00 0.00 71 1011.6
20260906032542 86 291 2.0 3.0 0.00 0.00 0.00 72 1011.7
20260906032036 86 284 2.0 3.0 0.00 0.00 0.00 71 1011.7
20260906031532 86 273 2.0 3.0 0.00 0.00 0.00 70 1011.8
20260906031028 86 297 2.0 3.0 0.00 0.00 0.00 71 1011.8
20260906030527 86 279 2.0 2.0 0.00 0.00 0.00 72 1011.7
20260906030027 86 277 1.0 2.0 0.00 0.00 0.00 72 1011.6
20260906025526 86 274 1.0 2.0 0.00 0.00 0.00 72 1011.5
20260906025024 86 271 1.0 2.0 0.00 0.00 0.00 71 1011.5
20260906024519 86 276 2.0 2.0 0.00 0.00 0.00 70 1011.6
20260906024014 87 292 1.0 2.0 0.00 0.00 0.00 70 1011.6
20260906023510 87 291 2.0 2.0 0.00 0.00 0.00 69 1011.5
20260906023005 87 276 2.0 2.0 0.00 0.00 0.00 68 1011.5
20260906022500 88 267 2.0 3.0 0.00 0.00 0.00 68 1011.5
20260906021955 88 274 2.0 3.0 0.00 0.00 0.00 68 1011.3
20260906021450 87 281 2.0 2.0 0.00 0.00 0.00 67 1011.2
20260906020945 87 288 1.0 2.0 0.00 0.00 0.00 67 1011.1
20260906020439 88 305 1.0 2.0 0.00 0.00 0.00 68 1011.0
20260906015938 88 269 2.0 2.0 0.00 0.00 0.00 67 1011.1
20260906015433 87 269 2.0 2.0 0.00 0.00 0.00 66 1010.9
20260906014933 87 287 1.0 2.0 0.00 0.00 0.00 67 1010.5
20260906014432 88 269 1.0 2.0 0.00 0.00 0.00 66 1010.8
20260906013929 88 284 0.0 2.0 0.00 0.00 0.00 65 1010.7
20260906013424 88 302 1.0 2.0 0.00 0.00 0.00 64 1010.6
20260906012920 89 302 2.0 3.0 0.00 0.00 0.00 63 1010.9
20260906012419 89 300 1.0 2.0 0.00 0.00 0.00 63 1010.6
20260906011918 89 235 0.0 1.0 0.00 0.00 0.00 62 1010.5
20260906011414 89 212 1.0 2.0 0.00 0.00 0.00 61 1010.4
20260906010909 89 269 0.0 2.0 0.00 0.00 0.00 61 1010.3
20260906010405 90 55 0.0 1.0 0.00 0.00 0.00 62 1010.4
20260906005901 90 297 0.0 0.0 0.00 0.00 0.00 61 1010.4
20260906005400 91 297 0.0 0.0 0.00 0.00 0.00 60 1010.2
20260906004859 91 297 0.0 0.0 0.00 0.00 0.00 59 1010.6
20260906004353 90 304 0.0 1.0 0.00 0.00 0.00 59 1010.4
20260906003848 91 316 1.0 2.0 0.00 0.00 0.00 59 1010.3
20260906003344 91 281 1.0 2.0 0.00 0.00 0.00 58 1010.3
20260906002839 92 269 0.0 1.0 0.00 0.00 0.00 58 1010.4
20260906002338 92 272 1.0 2.0 0.00 0.00 0.00 57 1010.4
20260906001834 93 269 0.0 1.0 0.00 0.00 0.00 56 1010.4
20260906001329 94 278 1.0 2.0 0.00 0.00 0.00 56 1010.5
20260906000825 94 269 1.0 2.0 0.00 0.00 0.00 55 1010.3
20260906000319 95 203 0.0 3.0 0.00 0.00 0.00 54 1010.7
20260905235820 95 198 2.0 3.0 0.00 0.00 0.00 54 1010.4
20260905235314 95 194 2.0 3.0 0.00 0.00 0.00 53 1010.6
20260905234809 96 192 2.0 3.0 0.00 0.00 0.00 50 1010.5
20260905234305 96 182 1.0 3.0 0.00 0.00 0.00 52 1010.6
20260905233759 96 216 1.0 3.0 0.00 0.00 0.00 51 1010.6
20260905233254 96 189 2.0 3.0 0.00 0.00 0.00 51 1010.5
20260905232753 96 203 1.0 3.0 0.00 0.00 0.00 50 1010.7
20260905232249 96 187 2.0 2.0 0.00 0.00 0.00 51 1010.9
20260905231745 96 148 3.0 5.0 0.00 0.00 0.00 50 1010.7
20260905231240 97 176 3.0 4.0 0.00 0.00 0.00 50 1010.7
20260905230736 97 168 2.0 4.0 0.00 0.00 0.00 48 1010.6
20260905230233 98 216 2.0 4.0 0.00 0.00 0.00 47 1010.5
20260905225728 98 197 2.0 4.0 0.00 0.00 0.00 47 1010.6
20260905225223 98 176 3.0 6.0 0.00 0.00 0.00 47 1010.4
20260905224722 98 185 3.0 5.0 0.00 0.00 0.00 47 1010.8
20260905224218 98 172 2.0 4.0 0.00 0.00 0.00 45 1010.5
20260905223714 98 173 5.0 6.0 0.00 0.00 0.00 43 1010.6
20260905223210 98 145 4.0 7.0 0.00 0.00 0.00 44 1010.5
20260905222706 99 160 3.0 5.0 0.00 0.00 0.00 43 1010.6
20260905222205 99 169 4.0 6.0 0.00 0.00 0.00 44 1010.3
20260905221701 99 156 4.0 7.0 0.00 0.00 0.00 43 1010.7
20260905221158 99 167 6.0 7.0 0.00 0.00 0.00 42 1010.6
20260905220653 100 164 6.0 9.0 0.00 0.00 0.00 43 1010.5
20260905220149 99 160 5.0 6.0 0.00 0.00 0.00 45 1010.7
20260905215649 99 172 3.0 7.0 0.00 0.00 0.00 42 1010.7
20260905215144 99 166 5.0 6.0 0.00 0.00 0.00 42 1010.6
20260905214640 99 141 3.0 6.0 0.00 0.00 0.00 41 1010.7
20260905214135 99 176 4.0 10.0 0.00 0.00 0.00 42 1010.8
20260905213630 99 176 3.0 7.0 0.00 0.00 0.00 41 1010.6
20260905213126 99 176 4.0 7.0 0.00 0.00 0.00 43 1010.8
20260905212621 101 175 5.0 6.0 0.00 0.00 0.00 44 1010.9
20260905212121 100 262 4.0 5.0 0.00 0.00 0.00 42 1010.6
20260905211615 100 198 3.0 7.0 0.00 0.00 0.00 42 1010.8
20260905211111 100 193 4.0 6.0 0.00 0.00 0.00 43 1010.7
20260905210607 100 191 4.0 6.0 0.00 0.00 0.00 42 1010.8
20260905205601 101 211 3.0 5.0 0.00 0.00 0.00 41 1010.8
20260905205101 101 213 2.0 6.0 0.00 0.00 0.00 41 1010.9
20260905204555 101 221 4.0 6.0 0.00 0.00 0.00 41 1011.1
20260905204050 100 170 4.0 8.0 0.00 0.00 0.00 43 1011.2
20260905203550 101 170 7.0 7.0 0.00 0.00 0.00 42 1011.2
20260905203046 100 176 2.0 8.0 0.00 0.00 0.00 42 1011.3
20260905202541 100 178 4.0 8.0 0.00 0.00 0.00 42 1011.4
20260905202036 100 201 3.0 7.0 0.00 0.00 0.00 42 1011.7
20260905201532 100 182 4.0 9.0 0.00 0.00 0.00 42 1011.5
20260905201031 100 293 2.0 7.0 0.00 0.00 0.00 41 1011.6
20260905200527 100 307 5.0 9.0 0.00 0.00 0.00 42 1011.6
20260905200026 100 37 3.0 7.0 0.00 0.00 0.00 41 1011.6
20260905195520 100 98 4.0 7.0 0.00 0.00 0.00 41 1011.9
20260905195016 99 186 3.0 5.0 0.00 0.00 0.00 42 1011.9
20260905194510 99 36 2.0 8.0 0.00 0.00 0.00 42 1012.1
20260905194010 100 80 2.0 8.0 0.00 0.00 0.00 42 1012.2
20260905193504 99 0 0.0 8.0 0.00 0.00 0.00 43 1012.2
20260905192959 100 324 4.0 7.0 0.00 0.00 0.00 42 1012.5
20260905192454 100 6 4.0 7.0 0.00 0.00 0.00 43 1012.5
20260905191950 100 272 3.0 7.0 0.00 0.00 0.00 43 1012.4
20260905191444 101 274 5.0 6.0 0.00 0.00 0.00 43 1012.7
20260905190943 100 78 2.0 5.0 0.00 0.00 0.00 43 1012.7
20260905190441 99 198 0.0 3.0 0.00 0.00 0.00 45 1012.9
20260905185940 97 50 0.0 4.0 0.00 0.00 0.00 47 1012.8
20260905185436 98 322 1.0 5.0 0.00 0.00 0.00 46 1013.1
20260905184934 98 328 2.0 3.0 0.00 0.00 0.00 46 1013.1
20260905184429 97 28 3.0 6.0 0.00 0.00 0.00 47 1012.9
20260905183928 98 316 2.0 7.0 0.00 0.00 0.00 47 1012.8
20260905183422 99 7 2.0 4.0 0.00 0.00 0.00 46 1013.0
20260905182918 100 315 5.0 7.0 0.00 0.00 0.00 44 1013.1
20260905182416 101 288 4.0 6.0 0.00 0.00 0.00 43 1012.8
20260905181913 101 333 3.0 5.0 0.00 0.00 0.00 42 1013.0
20260905181413 99 193 3.0 5.0 0.00 0.00 0.00 44 1013.1
20260905180912 98 269 1.0 3.0 0.00 0.00 0.00 45 1013.2
20260905180406 96 340 2.0 5.0 0.00 0.00 0.00 46 1013.1
20260905175901 96 321 2.0 5.0 0.00 0.00 0.00 46 1013.1
20260905175401 98 312 4.0 6.0 0.00 0.00 0.00 46 1013.2
20260905174855 99 74 8.0 8.0 0.00 0.00 0.00 46 1013.1
20260905174352 100 273 2.0 5.0 0.00 0.00 0.00 44 1013.1
20260905173847 100 286 2.0 7.0 0.00 0.00 0.00 44 1013.3
20260905173343 99 278 6.0 9.0 0.00 0.00 0.00 44 1013.3
20260905172838 97 52 4.0 8.0 0.00 0.00 0.00 45 1013.1
20260905172336 98 6 4.0 8.0 0.00 0.00 0.00 47 1013.4
20260905171832 99 306 5.0 8.0 0.00 0.00 0.00 46 1013.4
20260905171329 98 293 5.0 10.0 0.00 0.00 0.00 45 1013.5
20260905170825 98 297 4.0 7.0 0.00 0.00 0.00 45 1013.8
20260905170320 98 298 5.0 9.0 0.00 0.00 0.00 45 1013.8
20260905165820 99 267 6.0 6.0 0.00 0.00 0.00 45 1013.9
20260905165315 98 290 7.0 8.0 0.00 0.00 0.00 47 1013.7
20260905164815 98 306 3.0 6.0 0.00 0.00 0.00 49 1014.0
20260905164310 97 279 3.0 7.0 0.00 0.00 0.00 50 1013.7
20260905163805 96 280 3.0 6.0 0.00 0.00 0.00 50 1014.2
20260905163302 97 352 3.0 7.0 0.00 0.00 0.00 50 1014.1
20260905162757 97 26 4.0 6.0 0.00 0.00 0.00 49 1014.0
20260905162257 96 352 5.0 13.0 0.00 0.00 0.00 50 1014.1
20260905161752 96 351 4.0 8.0 0.00 0.00 0.00 52 1014.3
20260905161250 97 318 3.0 6.0 0.00 0.00 0.00 50 1014.2
20260905160749 96 268 2.0 5.0 0.00 0.00 0.00 52 1014.1
20260905160243 95 314 3.0 7.0 0.00 0.00 0.00 53 1014.1
20260905155738 96 323 4.0 6.0 0.00 0.00 0.00 51 1014.3
20260905155237 95 6 3.0 7.0 0.00 0.00 0.00 53 1014.2
20260905154731 95 7 4.0 8.0 0.00 0.00 0.00 54 1014.1
20260905154227 94 18 4.0 7.0 0.00 0.00 0.00 56 1014.4
20260905153723 94 29 6.0 9.0 0.00 0.00 0.00 56 1014.5
20260905153219 94 59 2.0 6.0 0.00 0.00 0.00 58 1014.5
20260905152713 94 359 5.0 9.0 0.00 0.00 0.00 58 1014.4
20260905152207 93 358 2.0 8.0 0.00 0.00 0.00 60 1014.3
20260905151707 93 8 2.0 6.0 0.00 0.00 0.00 61 1014.3
20260905151203 92 0 2.0 8.0 0.00 0.00 0.00 60 1014.3
20260905150658 93 13 5.0 6.0 0.00 0.00 0.00 61 1014.4
20260905150157 92 45 3.0 7.0 0.00 0.00 0.00 62 1014.5
20260905145655 92 50 3.0 7.0 0.00 0.00 0.00 62 1014.2
20260905145149 91 309 4.0 6.0 0.00 0.00 0.00 64 1014.4
20260905144643 92 355 3.0 5.0 0.00 0.00 0.00 64 1014.2
20260905144143 92 344 1.0 5.0 0.00 0.00 0.00 66 1014.4
20260905143637 90 15 3.0 7.0 0.00 0.00 0.00 67 1014.3
20260905143132 90 24 4.0 5.0 0.00 0.00 0.00 66 1014.5
20260905142630 90 20 2.0 6.0 0.00 0.00 0.00 67 1014.1
20260905142125 89 33 5.0 7.0 0.00 0.00 0.00 67 1014.3
20260905141625 88 30 5.0 6.0 0.00 0.00 0.00 66 1014.3
20260905141121 88 326 0.0 6.0 0.00 0.00 0.00 67 1014.2
20260905140616 88 29 5.0 7.0 0.00 0.00 0.00 67 1014.2
20260905140115 89 334 3.0 5.0 0.00 0.00 0.00 68 1014.2
20260905135611 89 351 2.0 5.0 0.00 0.00 0.00 70 1014.1
20260905135106 88 303 2.0 4.0 0.00 0.00 0.00 72 1014.1
20260905134601 87 334 1.0 3.0 0.00 0.00 0.00 75 1014.1